#timestamp,LO_Frequency,Hit,StdDev 
1607978855.5,286047019.9,P
1607978875.3,286047021.9,P
1607978895.2,286047019.6,P
1607978915.9,286047020.4,Y
1607978935.7,286047000.7,P
1607978955.6,286046999.9,N
1607978975.4,286046999.7,N
1607978995.3,286047002.8,N
1607979015.1,286047002.2,N
1607979016.0,286047002.2,N
1607979035.8,286047003.6,N
1607979055.7,286047004.1,N
1607979075.5,286047002.4,N
1607979095.3,286047002.4,N
1607979115.2,286046999.7,N
1607979135.0,286047001.5,N
1607979135.9,286047001.5,N
1607979155.8,286047002.2,N
1607979175.6,286047000.4,N
1607979195.4,286047000.0,N
1607979215.3,286047000.1,N
1607979235.1,286047000.2,N
1607979255.9,286047000.0,N
1607979275.7,286047000.2,N
1607979295.5,286047002.2,N
1607979315.4,286047003.0,N
1607979335.2,286047004.3,N
1607979355.0,286047001.5,N
1607979355.9,286047001.5,N
1607979375.8,286047001.7,N
1607979395.6,286047001.6,N
1607979415.5,286047001.8,N
1607979435.3,286047000.3,N
1607979455.1,286046998.1,N
1607979475.9,286046998.1,N
1607979495.7,286047000.1,N
1607979515.6,286046998.6,N
1607979535.4,286046999.0,N
1607979555.2,286046999.2,N
1607979575.1,286047011.9,Y
1607979576.0,286046996.7,P
1607979595.8,286046997.9,N
